Regional Weather Roundup
Issued by NWS

Home | Current Version | Previous Version | Graphics & Text | Print | Product List | Glossary Off
Versions: 1 2 3 4 5 6 7 8 9 10 11 12 13 14 15 16 17 18 19 20 21 22 23 24 25 26 27 28 29 30 31 32 33 34 35 36 37 38 39 40 41 42 43 44 45 46 47 48 49 50

000
ASUS43 KTOP 242108
RWRKS

WEATHER ROUNDUP FOR KANSAS
NATIONAL WEATHER SERVICE GOODLAND KS
400 PM CDT SAT JUN 24 2017

NOTE:  "FAIR" INDICATES FEW OR NO CLOUDS BELOW 12,000 FEET WITH NO
SIGNIFICANT WEATHER AND/OR OBSTRUCTIONS TO VISIBILITY.

KSZ001>006-013>018-027>032-041>047-242200-
NORTHWEST KANSAS

CITY           SKY/WX    TMP DP  RH WIND       PRES   REMARKS
GOODLAND       CLOUDY    71  49  45 CALM      30.26F
HAYS           CLOUDY    78  53  41 SW7       30.21F
HILL CITY      PTSUNNY   77  51  40 S8        30.23F
RUSSELL        CLOUDY    80  49  33 NE7       30.20F
$$

KSZ061>065-074>080-084>089-242200-
SOUTHWEST KANSAS

CITY           SKY/WX    TMP DP  RH WIND       PRES   REMARKS
DODGE CITY     MOSUNNY   80  50  34 S12G21    30.23F
ELKHART          N/A     73  46  38 S10         N/A
GARDEN CITY    CLOUDY    77  47  34 S12G22    30.24F
GREAT BEND     PTSUNNY   81  52  36 SW9       30.21F
LIBERAL        CLOUDY    78  50  37 S15       30.24F
PRATT          MOSUNNY   80  49  33 S10       30.21F
$$

KSZ066>073-081>083-090>101-242200-
SOUTHEAST KANSAS

CITY           SKY/WX    TMP DP  RH WIND       PRES   REMARKS
CHANUTE        SUNNY     83  46  27 NW13      30.19F
COFFEYVILLE    SUNNY     84  52  33 NE12G24   30.17F
HUTCHINSON     SUNNY     84  48  28 MISG      30.19F
MEDICINE LODGE   N/A     81  51  35 CALM      30.18F
NEWTON         SUNNY     83  47  28 VRB6      30.21F
PARSONS        SUNNY     83  48  29 NW6       30.19F
WICHITA INTL   MOSUNNY   82  52  35 S3        30.19F
WICHITA JABRA  SUNNY     81  51  35 VRB5      30.19F
WICHITA MCCONL SUNNY     81  53  37 NE3       30.19F
WINFIELD       SUNNY     82  54  37 CALM      30.19F
$$

KSZ007>012-019>026-033>040-048>060-102>105-242200-
NORTHEAST KANSAS

CITY           SKY/WX    TMP DP  RH WIND       PRES   REMARKS
CONCORDIA      PTSUNNY   79  37  22 N12       30.21F
EMPORIA        MOSUNNY   79  46  31 N10G18    30.21F
LAWRENCE       SUNNY     76  46  34 W12       30.20F
MANHATTAN      SUNNY     81  39  22 NW6       30.20F
MARYSVILLE     CLOUDY    79  41  25 NW10G16   30.20F
OLATHE IND     SUNNY     78  45  30 NW14G26   30.21F
OLATHE EXE     SUNNY     78  44  29 N12       30.20F
SALINA         SUNNY     82  44  26 CALM      30.20F
TOPEKA BILLARD SUNNY     78  44  29 VRB7      30.20F
TOPEKA FORBES  SUNNY     80  44  27 W10G21    30.20F
$$




USA.gov is the U.S. government's official web portal to all federal, state and local government web resources and services.